Home > Weather > Los Angeles > Past weeks

Flag for USA Past Weather in Los Angeles, California, USA — Yesterday and Last 2 Weeks

Now
77 °F

Sunny.


Feels Like: 79 °F
Forecast: 61 / 82 °F
Wind: 5 mph from North

Location: Los Angeles / USC Campus Downtown

Current Time: Jun 25, 2016 at 2:37:44 PM

Latest Report: Jun 25, 2016 at 1:47 PM


Visibility: 7 mi

Pressure: 29.84 "Hg

Humidity: 58%

Dew Point: 61 °F

Location of Los AngelesLocation

Past Weather in Los Angeles — Graph

°F

Los Angeles Temperature Yesterday

Maximum temperature yesterday: 78 °F (at 12:47 PM)
Minimum temperature yesterday: 64 °F (at 12:47 AM)
Average temperature yesterday: 69 °F

High & Low Weather Summary for the Past Weeks

 TemperatureHumidityPressure
High98 °F (Jun 20, 9:47 AM)97% (Jun 22, 3:47 AM)30.11 "Hg (Jun 22, 3:47 AM)
Low59 °F (Jun 16, 4:47 AM)12% (Jun 20, 4:47 PM)29.78 "Hg (Jun 20, 5:47 PM)
Average71 °F64%29.94 "Hg
* Reported Jun 10 12:01 PM — Jun 25 12:47 PM, Los Angeles, Weather by CustomWeather, © 2016

Note: Actual official high and low records may vary slightly from our data, if they occured in-between our weather recording intervals... More about our weather records

Advertising

Los Angeles Weather History for the Previous 24 Hours

Scroll right to see more
 ConditionsComfort  
Time TempWeatherWind HumidityBarometerVisibility
12:47 PM
Sat, Jun 25
79 °FSunny.3 mph54%29.84 "Hg7 mi
11:47 AM79 °FSunny.5 mph54%29.85 "Hg7 mi
10:47 AM78 °FSunny.No wind56%29.85 "Hg8 mi
9:47 AM74 °FSunny.No wind62%29.85 "Hg7 mi
8:47 AM70 °FSunny.No wind71%29.87 "Hg5 mi
7:47 AM67 °FOvercast.No wind76%29.86 "Hg5 mi
6:47 AM66 °FOvercast.No wind78%29.85 "Hg6 mi
5:47 AM66 °FOvercast.No wind78%29.85 "Hg8 mi
4:47 AM66 °FOvercast.No wind78%29.85 "Hg7 mi
3:47 AM65 °FOvercast.No wind81%29.85 "Hg7 mi
2:47 AM66 °FOvercast.3 mph81%29.85 "Hg8 mi
1:47 AM66 °FOvercast.No wind81%29.86 "Hg8 mi
12:47 AM67 °FOvercast.No wind79%29.87 "Hg9 mi
11:47 PM
Fri, Jun 24
66 °FOvercast.No wind81%29.88 "Hg10 mi
10:58 PM67 °FPassing clouds.No wind79%29.89 "Hg10 mi
10:47 PM67 °FPassing clouds.3 mph79%29.88 "Hg10 mi
9:47 PM68 °FClear.No wind76%29.88 "Hg10 mi
8:47 PM68 °FSunny.No wind73%29.86 "Hg10 mi
7:47 PM70 °FSunny.No wind71%29.85 "Hg10 mi
6:47 PM72 °FSunny.6 mph66%29.85 "Hg10 mi
5:47 PM74 °FSunny.5 mph62%29.85 "Hg10 mi
4:47 PM73 °FSunny.5 mph66%29.87 "Hg10 mi
3:47 PM74 °FSunny.9 mph64%29.88 "Hg10 mi
2:47 PM77 °FSunny.5 mph58%29.89 "Hg10 mi
Weather by CustomWeather, © 2016

See weather overviewHow to use our weather pages